Location: Zihuatanejo
(17.6330°N, 101.5500°W)
Time: 16:42:26
(UTC-05:00)

Tiangong 2 - Pass Details

Date: 27 March 2019
Orbit: 378 x 390 km, 42.8° (Epoch: 25 April)

Event Time Altitude Azimuth Distance (km) Brightness Sun altitude
Rises 20:32:11 0° 222° (SW) 2,234 5.5 -8.8°
Reaches altitude 10° 20:34:16 10° 219° (SW) 1,382 4.3 -9.3°
Maximum altitude 20:37:21 62° 137° (SE) 426 1.0 -10.0°
Enters shadow 20:40:19 11° 56° (NE) 1,341 3.4 -10.7°
